| time (UTC) | temp F | wind direction | speed MPH | gust MPH | rain 1hr in | rain 24hr in | rain mn in | humidity % | barometer mb |
| 20260906181034 | 75 | 209 | 2.0 | 6.0 | 0.00 | 0.00 | 0.00 | 51 | 1014.5 |
| 20260906180011 | 73 | 176 | 3.0 | 7.0 | 0.00 | 0.00 | 0.00 | 52 | 1014.6 |
| 20260906175029 | 73 | 260 | 3.0 | 9.0 | 0.00 | 0.00 | 0.00 | 52 | 1014.6 |
| 20260906174024 | 72 | 161 | 4.0 | 8.0 | 0.00 | 0.00 | 0.00 | 53 | 1014.7 |
| 20260906173029 | 71 | 141 | 3.0 | 9.0 | 0.00 | 0.00 | 0.00 | 53 | 1014.6 |
| 20260906172008 | 71 | 180 | 5.0 | 8.0 | 0.00 | 0.00 | 0.00 | 54 | 1014.6 |
| 20260906171008 | 70 | 168 | 6.0 | 9.0 | 0.00 | 0.00 | 0.00 | 55 | 1014.6 |
| 20260906170008 | 70 | 162 | 5.0 | 10.0 | 0.00 | 0.01 | 0.00 | 54 | 1014.6 |
| 20260906165008 | 69 | 159 | 5.0 | 10.0 | 0.00 | 0.01 | 0.00 | 55 | 1014.6 |
| 20260906164009 | 69 | 178 | 4.0 | 11.0 | 0.00 | 0.01 | 0.00 | 55 | 1014.5 |
| 20260906163044 | 69 | 180 | 5.0 | 9.0 | 0.00 | 0.01 | 0.00 | 56 | 1014.5 |
| 20260906162024 | 68 | 157 | 5.0 | 10.0 | 0.00 | 0.01 | 0.00 | 59 | 1014.6 |
| 20260906161044 | 67 | 139 | 4.0 | 7.0 | 0.00 | 0.01 | 0.00 | 62 | 1014.6 |
| 20260906160020 | 66 | 159 | 6.0 | 9.0 | 0.00 | 0.01 | 0.00 | 65 | 1014.6 |
| 20260906155023 | 65 | 165 | 6.0 | 9.0 | 0.00 | 0.01 | 0.00 | 68 | 1014.6 |
| 20260906154042 | 64 | 170 | 4.0 | 9.0 | 0.00 | 0.01 | 0.00 | 71 | 1014.6 |
| 20260906153020 | 63 | 218 | 3.0 | 9.0 | 0.00 | 0.01 | 0.00 | 72 | 1014.7 |
| 20260906152042 | 63 | 186 | 4.0 | 10.0 | 0.00 | 0.01 | 0.00 | 74 | 1014.7 |
| 20260906151019 | 62 | 109 | 4.0 | 9.0 | 0.00 | 0.01 | 0.00 | 75 | 1014.8 |
| 20260906150017 | 61 | 143 | 6.0 | 10.0 | 0.00 | 0.01 | 0.00 | 76 | 1014.7 |
| 20260906145039 | 60 | 126 | 5.0 | 8.0 | 0.00 | 0.01 | 0.00 | 78 | 1014.7 |
| 20260906144014 | 59 | 132 | 4.0 | 8.0 | 0.00 | 0.01 | 0.00 | 78 | 1014.7 |
| 20260906143013 | 59 | 123 | 2.0 | 6.0 | 0.00 | 0.01 | 0.00 | 77 | 1014.5 |
| 20260906142017 | 58 | 202 | 4.0 | 7.0 | 0.00 | 0.01 | 0.00 | 77 | 1014.3 |
| 20260906141017 | 58 | 100 | 2.0 | 4.0 | 0.00 | 0.01 | 0.00 | 77 | 1014.3 |
| 20260906140036 | 58 | 132 | 2.0 | 6.0 | 0.00 | 0.01 | 0.00 | 77 | 1014.1 |
| 20260906135019 | 58 | 135 | 3.0 | 5.0 | 0.00 | 0.01 | 0.00 | 76 | 1014.0 |
| 20260906134015 | 58 | 130 | 2.0 | 5.0 | 0.00 | 0.01 | 0.00 | 77 | 1013.9 |
| 20260906133017 | 58 | 116 | 2.0 | 4.0 | 0.00 | 0.01 | 0.00 | 76 | 1014.0 |
| 20260906132017 | 58 | 111 | 2.0 | 4.0 | 0.00 | 0.01 | 0.00 | 75 | 1013.9 |
| 20260906131017 | 58 | 107 | 3.0 | 5.0 | 0.00 | 0.01 | 0.00 | 74 | 1013.7 |
| 20260906130013 | 58 | 110 | 2.0 | 5.0 | 0.00 | 0.01 | 0.00 | 73 | 1013.8 |
| 20260906125012 | 58 | 141 | 3.0 | 5.0 | 0.00 | 0.01 | 0.00 | 72 | 1013.7 |
| 20260906124010 | 58 | 134 | 3.0 | 5.0 | 0.00 | 0.01 | 0.00 | 72 | 1013.7 |
| 20260906123009 | 58 | 139 | 2.0 | 5.0 | 0.00 | 0.01 | 0.00 | 73 | 1013.7 |
| 20260906122036 | 58 | 103 | 3.0 | 4.0 | 0.00 | 0.01 | 0.00 | 73 | 1013.5 |
| 20260906121013 | 58 | 119 | 2.0 | 4.0 | 0.00 | 0.01 | 0.00 | 72 | 1013.7 |
| 20260906120012 | 58 | 131 | 1.0 | 2.0 | 0.00 | 0.01 | 0.00 | 72 | 1013.6 |
| 20260906115012 | 58 | 130 | 2.0 | 3.0 | 0.00 | 0.01 | 0.00 | 72 | 1013.5 |
| 20260906114006 | 59 | 111 | 2.0 | 4.0 | 0.00 | 0.01 | 0.00 | 72 | 1013.5 |
| 20260906113012 | 59 | 145 | 2.0 | 4.0 | 0.00 | 0.01 | 0.00 | 72 | 1013.6 |
| 20260906112012 | 59 | 131 | 1.0 | 5.0 | 0.00 | 0.01 | 0.00 | 71 | 1013.5 |
| 20260906111011 | 59 | 125 | 3.0 | 4.0 | 0.00 | 0.01 | 0.00 | 71 | 1013.5 |
| 20260906110012 | 59 | 134 | 2.0 | 3.0 | 0.00 | 0.01 | 0.00 | 70 | 1013.4 |
| 20260906105011 | 60 | 127 | 2.0 | 4.0 | 0.00 | 0.01 | 0.00 | 70 | 1013.3 |
| 20260906104006 | 60 | 141 | 3.0 | 5.0 | 0.00 | 0.01 | 0.00 | 70 | 1013.3 |
| 20260906103013 | 60 | 175 | 2.0 | 4.0 | 0.00 | 0.01 | 0.00 | 69 | 1013.4 |
| 20260906102017 | 60 | 163 | 1.0 | 4.0 | 0.00 | 0.01 | 0.00 | 68 | 1013.4 |
| 20260906101020 | 61 | 164 | 2.0 | 4.0 | 0.00 | 0.01 | 0.00 | 67 | 1013.4 |
| 20260906100015 | 61 | 129 | 2.0 | 9.0 | 0.00 | 0.01 | 0.00 | 65 | 1013.3 |
| 20260906095038 | 61 | 157 | 3.0 | 9.0 | 0.00 | 0.01 | 0.00 | 64 | 1013.3 |
| 20260906094022 | 62 | 154 | 4.0 | 5.0 | 0.00 | 0.01 | 0.00 | 63 | 1013.3 |
| 20260906093036 | 62 | 175 | 3.0 | 7.0 | 0.00 | 0.01 | 0.00 | 60 | 1013.4 |
| 20260906092018 | 62 | 162 | 3.0 | 6.0 | 0.00 | 0.01 | 0.00 | 59 | 1013.4 |
| 20260906091039 | 63 | 193 | 2.0 | 6.0 | 0.00 | 0.01 | 0.00 | 57 | 1013.5 |
| 20260906090016 | 63 | 178 | 3.0 | 6.0 | 0.00 | 0.01 | 0.00 | 58 | 1013.5 |
| 20260906085021 | 63 | 161 | 2.0 | 4.0 | 0.00 | 0.01 | 0.00 | 57 | 1013.7 |
| 20260906084027 | 63 | 143 | 2.0 | 5.0 | 0.00 | 0.01 | 0.00 | 57 | 1013.7 |
| 20260906083026 | 63 | 139 | 2.0 | 3.0 | 0.00 | 0.01 | 0.00 | 58 | 1013.6 |
| 20260906082011 | 63 | 151 | 2.0 | 4.0 | 0.00 | 0.01 | 0.00 | 57 | 1013.5 |
| 20260906081014 | 64 | 161 | 2.0 | 5.0 | 0.00 | 0.01 | 0.00 | 56 | 1013.5 |
| 20260906080015 | 64 | 134 | 2.0 | 5.0 | 0.00 | 0.01 | 0.00 | 55 | 1013.5 |
| 20260906075018 | 64 | 140 | 2.0 | 3.0 | 0.00 | 0.01 | 0.00 | 55 | 1013.6 |
| 20260906074021 | 64 | 114 | 2.0 | 4.0 | 0.00 | 0.01 | 0.00 | 55 | 1013.6 |
| 20260906073020 | 64 | 118 | 2.0 | 4.0 | 0.00 | 0.01 | 0.00 | 55 | 1013.7 |
| 20260906072042 | 65 | 135 | 1.0 | 3.0 | 0.00 | 0.01 | 0.00 | 54 | 1013.7 |
| 20260906071022 | 65 | 125 | 0.0 | 3.0 | 0.00 | 0.01 | 0.00 | 53 | 1013.7 |
| 20260906070019 | 66 | 107 | 2.0 | 4.0 | 0.00 | 0.01 | 0.00 | 52 | 1013.7 |
| 20260906065026 | 66 | 145 | 1.0 | 3.0 | 0.00 | 0.01 | 0.01 | 51 | 1013.6 |
| 20260906064021 | 66 | 132 | 2.0 | 3.0 | 0.00 | 0.01 | 0.01 | 50 | 1013.5 |
| 20260906063017 | 67 | 119 | 2.0 | 4.0 | 0.00 | 0.01 | 0.01 | 49 | 1013.7 |
| 20260906062012 | 67 | 115 | 1.0 | 3.0 | 0.00 | 0.01 | 0.01 | 51 | 1013.6 |
| 20260906061026 | 68 | 132 | 1.0 | 3.0 | 0.00 | 0.01 | 0.01 | 50 | 1013.7 |
| 20260906060025 | 68 | 152 | 2.0 | 3.0 | 0.00 | 0.01 | 0.01 | 50 | 1013.7 |
| 20260906055023 | 69 | 149 | 1.0 | 4.0 | 0.00 | 0.01 | 0.01 | 49 | 1013.7 |
| 20260906054016 | 69 | 119 | 2.0 | 3.0 | 0.00 | 0.01 | 0.01 | 48 | 1013.7 |
| 20260906053011 | 70 | 167 | 0.0 | 3.0 | 0.00 | 0.01 | 0.01 | 48 | 1013.5 |
| 20260906052013 | 70 | 135 | 2.0 | 6.0 | 0.00 | 0.01 | 0.01 | 47 | 1013.6 |
| 20260906051029 | 71 | 228 | 1.0 | 4.0 | 0.00 | 0.01 | 0.01 | 46 | 1013.3 |
| 20260906050008 | 71 | 235 | 0.0 | 8.0 | 0.00 | 0.01 | 0.01 | 46 | 1013.3 |
| 20260906045010 | 72 | 226 | 2.0 | 6.0 | 0.00 | 0.01 | 0.01 | 46 | 1013.3 |
| 20260906044040 | 72 | 233 | 1.0 | 5.0 | 0.00 | 0.01 | 0.01 | 46 | 1013.3 |
| 20260906043011 | 73 | 206 | 3.0 | 5.0 | 0.00 | 0.01 | 0.01 | 46 | 1013.3 |
| 20260906042028 | 73 | 242 | 2.0 | 8.0 | 0.00 | 0.01 | 0.01 | 45 | 1013.2 |
| 20260906041008 | 74 | 241 | 2.0 | 9.0 | 0.00 | 0.01 | 0.01 | 44 | 1013.2 |
| 20260906040028 | 74 | 251 | 1.0 | 5.0 | 0.00 | 0.01 | 0.01 | 44 | 1013.2 |
| 20260906035022 | 75 | 182 | 2.0 | 4.0 | 0.00 | 0.01 | 0.01 | 43 | 1012.9 |
| 20260906034025 | 75 | 241 | 2.0 | 5.0 | 0.00 | 0.01 | 0.01 | 42 | 1012.8 |
| 20260906033045 | 76 | 230 | 3.0 | 7.0 | 0.00 | 0.01 | 0.01 | 41 | 1012.8 |
| 20260906032016 | 76 | 251 | 2.0 | 9.0 | 0.00 | 0.01 | 0.01 | 40 | 1012.8 |
| 20260906031036 | 76 | 253 | 2.0 | 6.0 | 0.00 | 0.01 | 0.01 | 37 | 1012.6 |
| 20260906030013 | 77 | 260 | 1.0 | 5.0 | 0.00 | 0.01 | 0.01 | 35 | 1012.6 |
| 20260906025007 | 77 | 240 | 2.0 | 3.0 | 0.00 | 0.01 | 0.01 | 34 | 1012.5 |
| 20260906024026 | 78 | 211 | 1.0 | 3.0 | 0.00 | 0.01 | 0.01 | 34 | 1012.4 |
| 20260906023022 | 78 | 216 | 1.0 | 7.0 | 0.00 | 0.01 | 0.01 | 34 | 1012.5 |
| 20260906022016 | 79 | 170 | 5.0 | 10.0 | 0.00 | 0.01 | 0.01 | 33 | 1012.5 |
| 20260906021009 | 80 | 155 | 2.0 | 6.0 | 0.00 | 0.01 | 0.01 | 34 | 1012.5 |
| 20260906020024 | 81 | 218 | 2.0 | 8.0 | 0.00 | 0.01 | 0.01 | 34 | 1012.6 |
| 20260906015021 | 81 | 260 | 5.0 | 9.0 | 0.00 | 0.01 | 0.01 | 33 | 1012.6 |
| 20260906014021 | 82 | 172 | 3.0 | 6.0 | 0.00 | 0.01 | 0.01 | 35 | 1012.5 |
| 20260906013017 | 83 | 189 | 1.0 | 6.0 | 0.00 | 0.01 | 0.01 | 34 | 1012.5 |
| 20260906012010 | 83 | 241 | 4.0 | 8.0 | 0.00 | 0.01 | 0.01 | 33 | 1012.5 |
| 20260906011008 | 83 | 169 | 5.0 | 8.0 | 0.00 | 0.01 | 0.01 | 34 | 1012.6 |
| 20260906010009 | 83 | 176 | 2.0 | 8.0 | 0.00 | 0.01 | 0.01 | 34 | 1012.6 |
| 20260906005009 | 84 | 193 | 3.0 | 11.0 | 0.00 | 0.01 | 0.01 | 33 | 1012.6 |
| 20260906004044 | 84 | 216 | 2.0 | 10.0 | 0.00 | 0.01 | 0.01 | 34 | 1012.5 |
| 20260906003033 | 84 | 24 | 1.0 | 9.0 | 0.00 | 0.01 | 0.01 | 31 | 1012.6 |
| 20260906002006 | 84 | 216 | 5.0 | 11.0 | 0.00 | 0.01 | 0.01 | 32 | 1012.5 |
| 20260906001026 | 83 | 189 | 5.0 | 9.0 | 0.00 | 0.01 | 0.01 | 34 | 1012.6 |
| 20260906000023 | 83 | 162 | 4.0 | 8.0 | 0.00 | 0.01 | 0.01 | 33 | 1012.6 |
| 20260905235023 | 84 | 186 | 3.0 | 7.0 | 0.00 | 0.01 | 0.01 | 33 | 1012.7 |
| 20260905234020 | 84 | 316 | 2.0 | 6.0 | 0.00 | 0.01 | 0.01 | 32 | 1012.7 |
| 20260905233016 | 84 | 249 | 2.0 | 8.0 | 0.00 | 0.01 | 0.01 | 33 | 1012.7 |
| 20260905232027 | 83 | 213 | 2.0 | 5.0 | 0.00 | 0.01 | 0.01 | 33 | 1012.7 |
| 20260905231006 | 83 | 177 | 2.0 | 8.0 | 0.00 | 0.01 | 0.01 | 33 | 1012.8 |
| 20260905230047 | 83 | 260 | 2.0 | 4.0 | 0.00 | 0.01 | 0.01 | 34 | 1012.9 |
| 20260905225020 | 82 | 10 | 3.0 | 6.0 | 0.00 | 0.01 | 0.01 | 34 | 1013.1 |
| 20260905224016 | 81 | 341 | 2.0 | 8.0 | 0.00 | 0.01 | 0.01 | 35 | 1013.2 |
| 20260905223019 | 82 | 247 | 3.0 | 6.0 | 0.00 | 0.01 | 0.01 | 36 | 1013.2 |
| 20260905222013 | 81 | 265 | 1.0 | 8.0 | 0.00 | 0.01 | 0.01 | 35 | 1013.2 |
| 20260905221011 | 80 | 168 | 4.0 | 8.0 | 0.00 | 0.01 | 0.01 | 37 | 1013.3 |
| 20260905220010 | 80 | 241 | 3.0 | 6.0 | 0.00 | 0.01 | 0.01 | 37 | 1013.3 |
| 20260905215021 | 79 | 260 | 4.0 | 9.0 | 0.00 | 0.01 | 0.01 | 38 | 1013.5 |
| 20260905214022 | 80 | 357 | 4.0 | 8.0 | 0.00 | 0.01 | 0.01 | 36 | 1013.9 |
| 20260905213036 | 79 | 265 | 4.0 | 8.0 | 0.00 | 0.01 | 0.01 | 38 | 1013.8 |
| 20260905212032 | 79 | 239 | 4.0 | 10.0 | 0.00 | 0.01 | 0.01 | 37 | 1013.9 |
| 20260905211029 | 80 | 254 | 3.0 | 7.0 | 0.00 | 0.01 | 0.01 | 38 | 1014.0 |
| 20260905210026 | 79 | 65 | 1.0 | 8.0 | 0.00 | 0.01 | 0.01 | 38 | 1014.1 |
| 20260905205007 | 78 | 182 | 2.0 | 7.0 | 0.00 | 0.01 | 0.01 | 38 | 1014.1 |
| 20260905204025 | 79 | 192 | 4.0 | 10.0 | 0.00 | 0.01 | 0.01 | 37 | 1014.1 |
| 20260905203021 | 79 | 103 | 1.0 | 8.0 | 0.00 | 0.01 | 0.01 | 38 | 1014.2 |
| 20260905202018 | 79 | 89 | 4.0 | 8.0 | 0.00 | 0.01 | 0.01 | 38 | 1014.2 |
| 20260905201019 | 78 | 260 | 1.0 | 5.0 | 0.00 | 0.01 | 0.01 | 40 | 1014.3 |
| 20260905200011 | 78 | 192 | 2.0 | 4.0 | 0.00 | 0.01 | 0.01 | 40 | 1014.4 |
| 20260905195010 | 77 | 260 | 5.0 | 10.0 | 0.00 | 0.01 | 0.01 | 41 | 1014.5 |
| 20260905194013 | 78 | 120 | 2.0 | 8.0 | 0.00 | 0.01 | 0.01 | 44 | 1014.5 |
| 20260905193010 | 76 | 66 | 1.0 | 6.0 | 0.00 | 0.01 | 0.01 | 43 | 1014.6 |
| 20260905192028 | 77 | 236 | 2.0 | 7.0 | 0.00 | 0.01 | 0.01 | 47 | 1014.6 |
| 20260905191007 | 75 | 360 | 4.0 | 8.0 | 0.00 | 0.01 | 0.01 | 48 | 1014.8 |
| 20260905190041 | 75 | 278 | 3.0 | 8.0 | 0.00 | 0.01 | 0.01 | 45 | 1015.0 |
| 20260905185019 | 75 | 16 | 2.0 | 6.0 | 0.00 | 0.01 | 0.01 | 49 | 1015.0 |
| 20260905184016 | 74 | 201 | 4.0 | 8.0 | 0.00 | 0.01 | 0.01 | 50 | 1014.9 |
| 20260905183009 | 74 | 220 | 3.0 | 8.0 | 0.00 | 0.01 | 0.01 | 51 | 1015.0 |
| 20260905182015 | 74 | 54 | 1.0 | 6.0 | 0.00 | 0.01 | 0.01 | 55 | 1015.0 |